Flag Weather past 2 weeks in Gitega, Burundi

Now
72 °F

Scattered clouds.


Feels Like: 71 °F
Forecast: 59 / 76 °F
Wind: 5 mph from Southeast

Location: Kigali Airport

Current Time: Nov 28, 2014 at 10:53:27 AM

Latest Report: Nov 28, 2014 at 10:30 AM


Visibility: N/A

Pressure: 30.18 "Hg

Humidity: 83%

Dew point: 66 °F

Location of GitegaLocation

Historic Weather in Gitega — Graph

°F

Gitega temperature yesterday

Maximum temperature yesterday: 81 °F (at 1:00 PM)
Minimum temperature yesterday: 59 °F (at 6:00 AM)
Average temperature yesterday: 66 °F

Past Weeks' High & Low Weather Summary

 TemperatureHumidityPressure
High82 °F (Nov 17, 1:30 PM)100% (Nov 13, 2:00 PM)30.24 "Hg (Nov 13, 2:00 PM)
Low59 °F (Nov 16, 3:00 AM)51% (Nov 17, 1:30 PM)29.98 "Hg (Nov 17, 3:00 PM)
Average68 °F89%30.11 "Hg
* Reported Nov 13 9:00 AM — Nov 28 9:30 AM, Gitega, Weather by CustomWeather, © 2014

Note: Actual official high and low records may vary slightly from our data, if they occured in-between our weather recording intervals... More about our weather records

Advertising

Gitega weather history for previous 24 hours

 ConditionsComfort  
Time TempWeatherWind HumidityBarometerVisibility
9:30 AM
Nov 28
72 °FBroken clouds.No wind83%30.18 "HgN/A
9:00 AM70 °FBroken clouds.No wind88%30.18 "Hg5 mi
8:30 AM66 °FBroken clouds.No wind100%30.15 "Hg4 mi
8:00 AM64 °FBroken clouds.No wind100%30.18 "Hg4 mi
7:30 AM64 °FLight rain. Broken clouds.No wind100%30.15 "Hg4 mi
7:00 AM63 °FBroken clouds.No wind100%30.15 "Hg4 mi
6:30 AM63 °FBroken clouds.No wind100%30.15 "Hg4 mi
6:00 AM63 °FBroken clouds.No wind100%30.12 "Hg5 mi
5:30 AM63 °FPassing clouds.No wind100%30.12 "Hg5 mi
5:00 AM63 °FPassing clouds.No wind100%30.12 "Hg5 mi
4:30 AM63 °FPassing clouds.3 mph100%30.12 "Hg5 mi
4:00 AM63 °FPassing clouds.3 mph100%30.09 "Hg5 mi
3:30 AM63 °FPassing clouds.No wind100%30.09 "Hg5 mi
3:00 AM63 °FPassing clouds.No wind100%30.09 "Hg5 mi
2:00 AM63 °FPassing clouds.No wind100%30.12 "HgN/A
1:30 AM63 °FPassing clouds.No wind100%30.12 "HgN/A
1:00 AM63 °FPassing clouds.No wind100%30.12 "HgN/A
12:30 AM63 °FPassing clouds.No wind100%30.12 "HgN/A
12:00 AM63 °FPassing clouds.No wind100%30.12 "HgN/A
11:30 PM
Nov 27
63 °FPassing clouds.No wind100%30.12 "HgN/A
11:00 PM63 °FPassing clouds.No wind100%30.15 "HgN/A
10:30 PM63 °FPartly cloudy.No wind100%30.12 "HgN/A
10:00 PM63 °FPartly cloudy.No wind100%30.12 "HgN/A
9:30 PM63 °FPartly cloudy.No wind100%30.15 "HgN/A
9:00 PM64 °FPartly cloudy.3 mph100%30.15 "HgN/A
8:30 PM64 °FPassing clouds.3 mph100%30.15 "HgN/A
8:00 PM64 °FPassing clouds.3 mph100%30.15 "HgN/A
7:30 PM64 °FPassing clouds.No wind100%30.12 "HgN/A
7:00 PM64 °FPassing clouds.No wind100%30.09 "HgN/A
6:30 PM63 °FMild.N/A100%30.09 "HgN/A
6:00 PM63 °FThunderstorms. Passing clouds.3 mph100%30.09 "HgN/A
4:00 PM72 °FThunderstorms. Broken clouds.22 mph83%30.04 "HgN/A
3:30 PM77 °FPartly sunny.9 mph65%30.04 "HgN/A
1:30 PM79 °FScattered clouds.8 mph65%30.04 "HgN/A
1:00 PM81 °FScattered clouds.3 mph58%30.07 "Hg1 mi
12:30 PM79 °FPartly sunny.3 mph65%30.07 "Hg1 mi
11:30 AM75 °FScattered clouds.5 mph74%30.12 "Hg1 mi
11:00 AM75 °FScattered clouds.5 mph74%30.12 "Hg1 mi
10:30 AM75 °FScattered clouds.3 mph74%30.12 "Hg6 mi
10:00 AM73 °FScattered clouds.3 mph78%30.15 "Hg5 mi
Weather by CustomWeather, © 2014

See weather overviewHow to use our weather pages